Погода в Брусянском

Россия / Тульская область     53°59′51″N   38°05′27″E
темп.,
°C
ветер,
м/с
пор.,
м/с
влажн.,
%
обл.,
%
осадки,
мм/ч
давл.,
гПа
погр.,
м
19 апреля, пн
пн1900:00+7всв5991100 0.3 1019288
03:00+6всв489789 0.6 1019306
06:00+6св599494 0.1 1019409
09:00+7всв7985100 0.1 1020654
12:00+5всв71192100 0.8 1020884
15:00+5всв71193100 2.4 10201025
18:00+5всв61197100 2.2 10201008
21:00+5всв71295100 3.2 1020958
20 апреля, вт
вт2000:00+4всв71392100 1.3 1019741
03:00+5в71391100 1.3 1018606
06:00+5в71393100 0.0 1018605
09:00+4в71194100 0.0 1018571
12:00+4всв61097100 0.1 1017516
15:00+4всв61196100 0.1 1016581
18:00+3всв81394100 0.0 1012595
21:00+3всв81595100 3.1 1008679
21 апреля, ср
ср2100:00+2всв91898100 8.3 1002840
03:00+6вюв91797100 9.3 998669
06:00+8юв81592100 0.9 996826
09:00+3ю91396100 1.8 998636
12:00+2зюз101696100 0.3 1002703
15:00+4зюз81388100 0.4 1007998
18:00+6юз51082100 0.0 1010864
21:00+5ююз4989100 0.3 1013295
22 апреля, чт
чт2200:00+4ююз4109361 0.0 1014290
03:00+3ююз3893100 0.0 1015166
06:00+3ююз41092100 0.1 1016306
09:00+5ю4991100 0.6 1017374
12:00+10ююз6774100 0.1 10171025
15:00+11ююз577342 0.3 1017966
18:00+11ю477145 0.0 1018596
21:00+8ююв498658 0.1 1018182
23 апреля, пт
пт2300:00+7ю499036 0.0 1018158
03:00+6ю499112 0.0 1018152
06:00+6ю4109133 0.0 1018184
09:00+11ю611735 0.0 1018562
12:00+15ююз8115853 1.1 10171522
15:00+16ююз811537 2.3 10161950
18:00+14ю7126346 1.0 1015824
21:00+10ююв6147746 1.1 1015354